Location: Birdton
(46.1166°N, 66.8166°W)
Time: 07:52:37
(UTC-03:00)

Daily predictions for brighter satellites

Satellite Brightness Start Highest point End
(mag) Time Altitude Azimuth Time Altitude Azimuth Time Altitude Azimuth
USA 234 4.5 21:50:22 10° NE 21:56:35 47° NNW 22:02:47 10° W
USA 229 DEB 4.0 21:52:01 10° SW 21:58:57 79° NW 22:06:01 10° NE
USA 229 4.0 21:52:07 10° SW 21:59:03 79° NW 22:06:08 10° NE
SL-14 R/B 4.4 21:57:26 10° SSE 22:00:50 28° E 22:04:18 10° NNE
H-2A R/B 3.7 21:57:31 10° ESE 22:01:38 23° ENE 22:05:49 10° N
Cosmos 304 Rocket 4.3 21:57:40 10° NNW 22:02:26 61° WSW 22:07:09 10° S
Cosmos 1908 4.3 22:02:32 10° NNW 22:06:18 47° W 22:10:04 10° SSW
SPOT 5 2.9 22:04:06 10° SSE 22:08:43 89° ENE 22:13:39 10° NNW
PSLV R/B 3.1 22:07:20 10° SSE 22:10:24 86° ENE 22:13:28 10° NNW
Cosmos 1898 Rocket 4.0 22:07:28 10° S 22:12:12 38° ESE 22:17:00 10° NE
Cosmos 1674 3.5 22:09:18 10° SSW 22:13:05 55° WNW 22:16:55 10° N
SPOT 1/Viking Rocket 3.8 22:08:44 10° SSE 22:13:45 57° ENE 22:18:49 10° N
deb Chang Zheng 4 4.0 22:09:40 10° N 22:13:59 67° WNW 22:18:17 10° SSW
Cosmos 2151 3.1 22:10:51 10° S 22:15:03 81° W 22:19:17 10° N
Nimbus 7 Rocket 4.4 22:10:35 10° NNE 22:16:29 88° ESE 22:22:20 10° SSW
Lacrosse 4 Rocket 3.8 22:14:38 10° N 22:17:24 16° NE 22:20:11 10° E
NOSS 3-1 (A) 3.7 22:12:52 10° S 22:18:27 45° ESE 22:24:37 10° NE
Cosmos 2227 Rocket 3.4 22:14:39 10° SSE 22:18:50 22° E 22:23:03 10° NE
YAOGAN 6 2.6 22:15:59 10° SSE 22:19:36 70° ENE 22:23:11 10° N
Cosmos 2150 Rocket 4.4 22:17:06 10° S 22:22:19 49° ESE 22:27:35 10° NNE
Cosmos 1300 2.7 22:20:48 10° N 22:24:40 86° E 22:28:30 10° S
COSMOS 2455 4.2 22:19:32 10° NNW 22:24:48 30° NE 22:30:02 10° ESE
Cosmos 2058 2.8 22:20:57 10° S 22:25:02 80° E 22:29:10 10° N
Meteor 1-11 4.3 22:19:35 10° S 22:25:17 65° E 22:30:57 10° NNE
Cosmos 292 Rocket 4.0 22:21:07 10° NNW 22:25:51 61° ENE 22:30:08 12° SE
Cosmos 2242 Rocket 3.9 22:23:21 10° N 22:27:46 53° ENE 22:31:50 12° SSE
SL-16 R/B 3.8 22:26:23 10° N 22:31:01 25° NE 22:35:37 10° ESE
Sich 1 3.2 22:26:56 10° S 22:31:16 57° E 22:35:34 10° NNE
Cosmos 2333 Rocket 2.7 22:26:44 10° NNW 22:32:23 53° ENE 22:37:23 13° SE
Landsat 7 4.4 22:31:26 13° SE 22:35:29 45° ENE 22:40:02 10° N
Cosmos 1633 Rocket 3.1 22:31:57 10° S 22:36:15 61° E 22:40:34 10° NNE
MetOp-A 4.5 22:31:50 10° S 22:37:08 66° WSW 22:42:29 10° NNW
USA 245 2.0 22:37:38 15° S 22:39:30 78° W 22:41:46 10° NNW
ATLAS 2AS CENTAUR R/B 3.7 22:34:37 10° S 22:41:03 32° ESE 22:47:54 10° NE
COSMOS 2428 3.3 22:38:38 10° NW 22:44:10 54° WSW 22:49:36 10° S
Cosmos 2297 Rocket 3.3 22:42:05 14° SSE 22:45:37 25° ESE 22:50:07 10° NE
ARGOS 3.2 22:40:45 11° SSE 22:45:54 89° ENE 22:51:20 10° NNW
Cosmos 1455 3.0 22:43:30 10° N 22:47:03 35° ENE 22:49:25 18° SE
Cosmos 2219 Rocket 2.2 22:42:47 10° NNW 22:48:25 86° ENE 22:53:00 16° SSE
Cosmos 1346 4.3 22:47:54 20° SE 22:49:07 26° E 22:51:44 10° NE
DELTA 2 DEB (DPAF) 4.2 22:47:31 16° SSE 22:51:04 67° ENE 22:55:33 10° N
Terra 2.4 22:47:48 16° SE 22:51:21 46° ENE 22:55:53 10° N
ATLAS 3B R/B 3.4 22:45:01 10° NNW 22:51:56 49° NE 22:58:02 12° ESE
USA 32 4.0 22:46:48 10° N 22:52:06 81° E 22:56:45 13° S
Cosmos 1805 Rocket 4.3 22:48:10 10° SSW 22:52:32 56° WNW 22:56:55 10° N
ERBS 3.2 22:50:33 10° S 22:53:35 28° SE 22:56:37 10° ENE
Cosmos 1726 3.1 22:56:39 10° NNW 23:00:17 45° W 23:03:46 11° SSW
IGS 5A 3.9 22:59:56 20° SE 23:02:36 49° ENE 23:06:39 10° N
NOSS 3-1 (C) 3.7 22:58:29 10° SW 23:04:26 77° NW 23:11:09 10° NE
SL-08 RB Rocket 3.8 23:00:48 15° S 23:04:28 70° WSW 23:09:00 10° NNW
Cosmos 1980 3.7 23:03:29 10° NNW 23:09:10 90° WSW 23:13:10 20° SSE
Cosmos 1937 Rocket 3.4 23:04:10 10° SSW 23:09:24 85° ESE 23:14:38 10° NNE
Cosmos 220 Rocket 4.0 23:05:10 10° SSW 23:09:34 85° ESE 23:14:03 10° NNE
Cosmos 1869 3.5 23:08:43 10° N 23:12:44 59° E 23:14:57 25° SSE
Meteor 2-10 4.4 23:07:11 10° NNW 23:12:54 76° W 23:17:32 16° S
CZ-4 R/B 4.1 23:11:44 10° N 23:16:41 71° WNW 23:21:30 10° SSW
Nadezhda 1 Rocket 3.9 23:11:41 10° N 23:17:48 88° W 23:22:31 18° S
Meteor 1-4 Rocket 3.8 23:14:53 10° NNW 23:18:23 37° W 23:21:10 14° SSW
Tiangong 1 1.5 23:15:36 10° WSW 23:18:30 38° S 23:18:55 35° SSE
Cosmos 990 Rocket 3.9 23:13:36 10° SSW 23:18:40 74° ESE 23:23:49 10° NNE
Cosmos 2237 Rocket 2.3 23:15:44 10° NNW 23:21:28 80° WSW 23:25:15 22° SSE
CZ-4C R/B 3.6 23:21:28 21° S 23:23:30 50° W 23:26:55 10° NNW
Cosmos 1271 Rocket 4.0 23:22:10 10° NNW 23:25:41 35° W 23:28:33 14° SSW
Cosmos 2082 3.7 23:23:08 10° SSW 23:28:50 73° ESE 23:34:33 10° NNE
Cosmos 1470 Rocket 3.6 23:25:29 16° SSW 23:28:51 76° W 23:33:11 10° N
Cosmos 1933 Rocket 3.7 23:26:29 16° SSW 23:29:58 77° W 23:34:28 10° N
Cosmos 1703 Rocket 4.1 23:26:51 10° N 23:31:04 45° ENE 23:33:02 27° SE
NOSS 0 Rocket 4.4 23:27:17 10° NW 23:33:13 52° WSW 23:37:22 20° S
Cosmos 1745 Rocket 4.2 23:27:32 10° SSW 23:33:43 69° W 23:39:53 10° N
Cosmos 192 4.4 23:29:05 10° NNW 23:34:00 77° WSW 23:36:46 26° SSE
Cosmos 1703 4.4 23:32:27 10° SSW 23:36:09 40° WNW 23:39:53 10° N
Cosmos 1269 Rocket 4.1 23:31:45 10° NNW 23:37:06 73° ENE 23:40:02 27° SSE
H-2A R/B 2.5 23:36:57 20° S 23:40:36 60° W 23:46:01 10° NNW
Cosmos 1709 Rocket 4.0 23:37:58 23° S 23:41:50 65° E 23:47:53 10° NNE
Cosmos 1626 2.5 23:41:26 22° SSW 23:43:41 62° W 23:47:26 10° N
Cosmos 2221 Rocket 3.8 23:40:37 10° N 23:45:09 61° E 23:47:07 32° SSE
SeaSat 1 3.2 23:46:37 21° ESE 23:49:37 44° NE 23:54:17 10° NNW
